Location: Newark
(32.9900°N, 111.5400°W)
Time: 23:19:12
(UTC+00:00)

Envisat - Pass Details

Date: 15 November 2019
Orbit: 764 x 766 km, 98.1° (Epoch: 08 December)

Event Time Altitude Azimuth Distance (km) Brightness Sun altitude
Rises 02:59:35 0° 218° (SW) 3,219 6.7 -32.4°
Reaches altitude 10° 03:04:01 10° 255° (WSW) 2,299 6.3 -33.3°
Maximum altitude 03:05:11 11° 269° (W) 2,250 6.2 -33.6°
Drops below altitude 10° 03:06:20 10° 282° (WNW) 2,302 6.2 -33.8°
Sets 03:10:50 0° 319° (NW) 3,234 6.7 -34.8°
